Time,TemperatureF,DewpointF,PressureIn,WindDirection,WindDirectionDegrees,WindSpeedMPH,WindSpeedGustMPH,Humidity,HourlyPrecipIn,Conditions,Clouds,dailyrainin,SoftwareType,DateUTC
2013-01-03 01:12:00,36.0,36.0,30.06,NW,310,5.0,-999.0,100,-99.99,,,-99.99,,2013-01-03 06:12:00,
2013-01-03 01:22:00,36.0,36.0,30.06,NW,310,5.0,-999.0,100,-99.99,,,-99.99,,2013-01-03 06:22:00,
2013-01-03 01:33:00,36.0,36.0,30.06,NW,310,5.0,-999.0,100,-99.99,,,-99.99,,2013-01-03 06:33:00,
2013-01-03 01:42:00,36.0,36.0,30.06,NW,310,5.0,-999.0,100,-99.99,,,-99.99,,2013-01-03 06:42:00,
2013-01-03 01:52:00,36.0,36.0,30.06,NW,310,5.0,-999.0,100,-99.99,,,-99.99,,2013-01-03 06:52:00,
2013-01-03 02:22:00,36.0,36.0,30.06,North,0,0.0,-999.0,100,-99.99,,,-99.99,,2013-01-03 07:22:00,
2013-01-03 02:33:00,36.0,36.0,30.06,North,0,0.0,-999.0,100,-99.99,,,-99.99,,2013-01-03 07:33:00,
2013-01-03 02:43:00,36.0,36.0,30.06,North,0,0.0,-999.0,100,-99.99,,,-99.99,,2013-01-03 07:43:00,
2013-01-03 02:52:00,36.0,36.0,30.06,North,0,0.0,-999.0,100,-99.99,,,-99.99,,2013-01-03 07:52:00,
2013-01-03 03:22:00,34.0,34.0,30.05,North,0,0.0,-999.0,100,-99.99,,,-99.99,,2013-01-03 08:22:00,
2013-01-03 03:33:00,34.0,34.0,30.05,North,0,0.0,-999.0,100,-99.99,,,-99.99,,2013-01-03 08:33:00,
2013-01-03 03:43:00,34.0,34.0,30.05,North,0,0.0,-999.0,100,-99.99,,,-99.99,,2013-01-03 08:43:00,
2013-01-03 03:53:00,34.0,34.0,30.05,North,0,0.0,-999.0,100,-99.99,,,-99.99,,2013-01-03 08:53:00,
2013-01-03 06:33:00,34.0,34.0,30.06,North,0,0.0,-999.0,100,-99.99,,,-99.99,,2013-01-03 11:33:00,
2013-01-03 06:43:00,34.0,34.0,30.06,North,0,0.0,-999.0,100,-99.99,,,-99.99,,2013-01-03 11:43:00,
2013-01-03 06:53:00,34.0,34.0,30.06,North,0,0.0,-999.0,100,-99.99,,,-99.99,,2013-01-03 11:53:00,
2013-01-03 08:22:00,34.0,34.0,30.09,North,0,0.0,-999.0,100,-99.99,,,-99.99,,2013-01-03 13:22:00,
2013-01-03 08:33:00,34.0,34.0,30.09,North,0,0.0,-999.0,100,-99.99,,,-99.99,,2013-01-03 13:33:00,
2013-01-03 08:42:00,34.0,34.0,30.09,North,0,0.0,-999.0,100,-99.99,,,-99.99,,2013-01-03 13:42:00,
2013-01-03 08:52:00,34.0,34.0,30.09,North,0,0.0,-999.0,100,-99.99,,,-99.99,,2013-01-03 13:52:00,
2013-01-03 09:23:00,36.0,36.0,30.09,North,0,0.0,-999.0,100,-99.99,,,-99.99,,2013-01-03 14:23:00,
2013-01-03 09:33:00,36.0,36.0,30.09,North,0,0.0,-999.0,100,-99.99,,,-99.99,,2013-01-03 14:33:00,
2013-01-03 09:43:00,36.0,36.0,30.09,North,0,0.0,-999.0,100,-99.99,,,-99.99,,2013-01-03 14:43:00,
2013-01-03 09:53:00,36.0,36.0,30.09,North,0,0.0,-999.0,100,-99.99,,,-99.99,,2013-01-03 14:53:00,
2013-01-03 11:23:00,36.0,36.0,30.12,North,0,0.0,-999.0,100,-99.99,,,-99.99,,2013-01-03 16:23:00,
2013-01-03 11:34:00,36.0,36.0,30.12,North,0,0.0,-999.0,100,-99.99,,,-99.99,,2013-01-03 16:34:00,
2013-01-03 11:43:00,36.0,36.0,30.12,North,0,0.0,-999.0,100,-99.99,,,-99.99,,2013-01-03 16:43:00,
2013-01-03 11:53:00,36.0,36.0,30.12,North,0,0.0,-999.0,100,-99.99,,,-99.99,,2013-01-03 16:53:00,
2013-01-03 12:13:00,37.0,37.0,30.10,North,0,0.0,-999.0,100,-99.99,,,-99.99,,2013-01-03 17:13:00,
2013-01-03 12:23:00,37.0,37.0,30.10,North,0,0.0,-999.0,100,-99.99,,,-99.99,,2013-01-03 17:23:00,
2013-01-03 12:33:00,37.0,37.0,30.10,North,0,0.0,-999.0,100,-99.99,,,-99.99,,2013-01-03 17:33:00,
2013-01-03 12:43:00,37.0,37.0,30.10,North,0,0.0,-999.0,100,-99.99,,,-99.99,,2013-01-03 17:43:00,
2013-01-03 12:53:00,37.0,37.0,30.10,North,0,0.0,-999.0,100,-99.99,,,-99.99,,2013-01-03 17:53:00,
2013-01-03 13:22:00,39.0,39.0,30.09,North,0,0.0,-999.0,100,-99.99,,,-99.99,,2013-01-03 18:22:00,
2013-01-03 13:33:00,39.0,39.0,30.09,North,0,0.0,-999.0,100,-99.99,,,-99.99,,2013-01-03 18:33:00,
2013-01-03 13:43:00,39.0,39.0,30.09,North,0,0.0,-999.0,100,-99.99,,,-99.99,,2013-01-03 18:43:00,
2013-01-03 13:53:00,39.0,39.0,30.09,North,0,0.0,-999.0,100,-99.99,,,-99.99,,2013-01-03 18:53:00,
2013-01-03 13:55:00,43.0,43.0,30.08,North,0,0.0,-999.0,100,-99.99,,,-99.99,,2013-01-03 18:55:00,
2013-01-03 15:13:00,39.0,39.0,30.09,North,0,0.0,-999.0,100,-99.99,,,-99.99,,2013-01-03 20:13:00,
2013-01-03 15:23:00,39.0,39.0,30.09,North,0,0.0,-999.0,100,-99.99,,,-99.99,,2013-01-03 20:23:00,
2013-01-03 15:33:00,39.0,39.0,30.09,North,0,0.0,-999.0,100,-99.99,,,-99.99,,2013-01-03 20:33:00,
2013-01-03 15:42:00,39.0,39.0,30.09,North,0,0.0,-999.0,100,-99.99,,,-99.99,,2013-01-03 20:42:00,
2013-01-03 15:53:00,39.0,39.0,30.09,North,0,0.0,-999.0,100,-99.99,,,-99.99,,2013-01-03 20:53:00,
2013-01-03 16:13:00,39.0,37.0,30.12,North,0,0.0,-999.0,93,-99.99,,,-99.99,,2013-01-03 21:13:00,
2013-01-03 16:23:00,39.0,37.0,30.12,North,0,0.0,-999.0,93,-99.99,,,-99.99,,2013-01-03 21:23:00,
2013-01-03 16:37:00,39.0,37.0,30.12,North,0,0.0,-999.0,93,-99.99,,,-99.99,,2013-01-03 21:37:00,
2013-01-03 16:50:00,39.0,37.0,30.12,North,0,0.0,-999.0,93,-99.99,,,-99.99,,2013-01-03 21:50:00,
2013-01-03 17:12:00,39.0,37.0,30.12,North,0,0.0,-999.0,93,-99.99,,,-99.99,,2013-01-03 22:12:00,
2013-01-03 17:22:00,39.0,37.0,30.12,North,0,0.0,-999.0,93,-99.99,,,-99.99,,2013-01-03 22:22:00,
2013-01-03 17:33:00,39.0,37.0,30.12,North,0,0.0,-999.0,93,-99.99,,,-99.99,,2013-01-03 22:33:00,
2013-01-03 17:43:00,39.0,37.0,30.12,North,0,0.0,-999.0,93,-99.99,,,-99.99,,2013-01-03 22:43:00,
2013-01-03 17:52:00,39.0,37.0,30.12,North,0,0.0,-999.0,93,-99.99,,,-99.99,,2013-01-03 22:52:00,
2013-01-03 20:13:00,34.0,30.0,30.18,North,0,0.0,-999.0,86,-99.99,,,-99.99,,2013-01-04 01:13:00,
2013-01-03 20:22:00,34.0,30.0,30.18,North,0,0.0,-999.0,86,-99.99,,,-99.99,,2013-01-04 01:22:00,
2013-01-03 20:33:00,34.0,30.0,30.18,North,0,0.0,-999.0,86,-99.99,,,-99.99,,2013-01-04 01:33:00,
2013-01-03 20:42:00,34.0,30.0,30.18,North,0,0.0,-999.0,86,-99.99,,,-99.99,,2013-01-04 01:42:00,
2013-01-03 20:52:00,34.0,30.0,30.18,North,0,0.0,-999.0,86,-99.99,,,-99.99,,2013-01-04 01:52:00,
2013-01-03 21:33:00,32.0,28.0,30.19,North,0,0.0,-999.0,86,-99.99,,,-99.99,,2013-01-04 02:33:00,
2013-01-03 21:42:00,32.0,28.0,30.19,North,0,0.0,-999.0,86,-99.99,,,-99.99,,2013-01-04 02:42:00,
2013-01-03 21:52:00,32.0,28.0,30.19,North,0,0.0,-999.0,86,-99.99,,,-99.99,,2013-01-04 02:52:00,
2013-01-03 22:12:00,30.0,28.0,30.19,North,0,0.0,-999.0,92,-99.99,,,-99.99,,2013-01-04 03:12:00,
2013-01-03 22:22:00,30.0,28.0,30.19,North,0,0.0,-999.0,92,-99.99,,,-99.99,,2013-01-04 03:22:00,
2013-01-03 22:33:00,30.0,28.0,30.19,North,0,0.0,-999.0,92,-99.99,,,-99.99,,2013-01-04 03:33:00,
2013-01-03 22:43:00,30.0,28.0,30.19,North,0,0.0,-999.0,92,-99.99,,,-99.99,,2013-01-04 03:43:00,
2013-01-03 22:52:00,30.0,28.0,30.19,North,0,0.0,-999.0,92,-99.99,,,-99.99,,2013-01-04 03:52:00,
2013-01-03 23:22:00,30.0,27.0,30.19,NW,310,5.0,-999.0,86,-99.99,,,-99.99,,2013-01-04 04:22:00,
2013-01-03 23:32:00,30.0,27.0,30.19,NW,310,5.0,-999.0,86,-99.99,,,-99.99,,2013-01-04 04:32:00,
2013-01-03 23:42:00,30.0,27.0,30.19,NW,310,5.0,-999.0,86,-99.99,,,-99.99,,2013-01-04 04:42:00,
2013-01-03 23:52:00,30.0,27.0,30.19,NW,310,5.0,-999.0,86,-99.99,,,-99.99,,2013-01-04 04:52:00,